Hourly Data Report for October 10, 2015

All times are specified in Local Standard Time (LST). Add 1 hour to adjust for Daylight Saving Time where and when it is observed.

RANKIN INLET A
NUNAVUT

62°48'38.000" N
92°06'53.000" W
32.30 m
2303405
71083
YRT

Download Data

Hourly Data (October 2015)
Hourly Data Report for October 10, 2015
Temp Definition
°C
Dew Point Temp Definition
°C
Rel Hum Definition
%
Wind Dir Definition
10's deg

Wind Spd Definition
km/h
Visibility Definition
km
Stn Press Definition
kPa
Hmdx Definition


Wind Chill Definition


Weather Definition


TIME
00:00 Legend Double Dagger -7.7 -9.5 87 34 18 24.1 100.77   -15 Mostly Cloudy
01:00 Legend Double Dagger -8.2 -9.7 89 34 16 24.1 100.79   -15 LegendNANA
02:00 Legend Double Dagger -9.0 -10.4 90 35 13 24.1 100.78   -15 LegendNANA
03:00 Legend Double Dagger -9.5 -11.0 89 1 14 24.1 100.76   -16 Mostly Cloudy
04:00 Legend Double Dagger -9.7 -11.3 88 36 11 24.1 100.76   -15 LegendNANA
05:00 Legend Double Dagger -10.2 -11.7 89 36 13 24.1 100.73   -16 LegendNANA
06:00 Legend Double Dagger -10.5 -11.8 90 36 9 24.1 100.69   -15 Mostly Cloudy
07:00 Legend Double Dagger -9.2 -11.0 87 6 8 24.1 100.61   -14 LegendNANA
08:00 Legend Double Dagger -8.5 -11.2 81 4 12 24.1 100.59   -14 LegendNANA
09:00 Legend Double Dagger -8.1 -10.8 81 5 10 24.1 100.54   -13 Mostly Cloudy
10:00 Legend Double Dagger -6.2 -9.3 79 7 10 24.1 100.51   -11 LegendNANA
11:00 Legend Double Dagger -5.2 -8.0 81 8 12 24.1 100.42   -10 LegendNANA
12:00 Legend Double Dagger -4.6 -7.7 79 8 16 24.1 100.35   -10 Cloudy
13:00 Legend Double Dagger -4.2 -7.2 80 9 18 24.1 100.26   -10 LegendNANA
14:00 Legend Double Dagger -4.0 -7.6 76 8 21 24.1 100.19   -10 LegendNANA
15:00 Legend Double Dagger -2.9 -9.0 63 12 26 24.1 100.12   -10 Cloudy
16:00 Legend Double Dagger -2.8 -8.9 63 12 25 24.1 100.06   -10 LegendNANA
17:00 Legend Double Dagger -2.6 -9.1 61 11 26 24.1 100.03   -9 LegendNANA
18:00 Legend Double Dagger -2.5 -9.2 60 12 30 24.1 100.01   -10 Cloudy
19:00 Legend Double Dagger -2.2 -8.3 63 12 29 24.1 99.96   -9 LegendNANA
20:00 Legend Double Dagger -1.9 -7.4 66 13 30 24.1 99.91   -9 LegendNANA
21:00 Legend Double Dagger -1.5 -7.1 66 13 33 24.1 99.83   -9 Cloudy
22:00 Legend Double Dagger -1.5 -5.9 72 12 35 24.1 99.80   -9 Blowing Snow
23:00 Legend Double Dagger -2.2 -4.9 82 13 40 24.1 99.77   -10 Blowing Snow

Notes on Data Quality.

Legend

  • E = Estimated
  • M = Missing
  • NA = Not Available
  • ‡ = Partner data that is not subject to review by the National Climate Archives
Date modified: